N428JM KVGT-KSAN

Flight info

Callsign N428JM
Flight time 1h 15m
Altitude 17000
Route GFS/N0304F160 V538 TNP V514 JLI/N0310F170 V514 CANNO/N0307F160 V514 MZB
Aircraft B350/L-SBGRW/S

Departure

Time 2026-04-25 02:22
Airport North Las Vegas Airport (KVGT)

Arrival

Time 2026-04-25 03:37
Airport San Diego International Airport (KSAN)
Time Latitude Longitude Altitude Speed Heading
2026-04-25 02:21 36.24461 -115.29330 6451 ft 138 kts 221°
2026-04-25 02:22 36.23698 -115.30048 6451 ft 138 kts 222°
2026-04-25 02:22 36.22925 -115.30757 6452 ft 138 kts 221°
2026-04-25 02:22 36.22148 -115.31463 6472 ft 141 kts 220°
2026-04-25 02:22 36.21358 -115.32204 6474 ft 147 kts 221°
2026-04-25 02:23 36.20538 -115.32974 6472 ft 148 kts 221°
2026-04-25 02:23 36.19715 -115.33742 6470 ft 148 kts 221°
2026-04-25 02:23 36.18896 -115.34516 6485 ft 146 kts 221°
2026-04-25 02:23 36.18105 -115.35262 6597 ft 140 kts 221°
2026-04-25 02:24 36.17333 -115.35978 6778 ft 142 kts 220°
2026-04-25 02:24 36.16478 -115.36719 7034 ft 157 kts 213°
2026-04-25 02:24 36.15474 -115.37368 7314 ft 167 kts 211°
2026-04-25 02:24 36.14768 -115.38416 7662 ft 163 kts 262°
2026-04-25 02:25 36.15157 -115.39700 8169 ft 173 kts 314°
2026-04-25 02:25 36.16340 -115.40063 8626 ft 190 kts
2026-04-25 02:25 36.17397 -115.39084 9043 ft 197 kts 64°
2026-04-25 02:25 36.17577 -115.37456 9512 ft 191 kts 98°
2026-04-25 02:26 36.17439 -115.35806 9893 ft 197 kts 101°
2026-04-25 02:26 36.17260 -115.34060 9996 ft 207 kts 101°
2026-04-25 02:26 36.16849 -115.32370 10009 ft 206 kts 118°
2026-04-25 02:26 36.16198 -115.30774 9992 ft 211 kts 121°
2026-04-25 02:27 36.15499 -115.29149 9995 ft 217 kts 121°
2026-04-25 02:27 36.14780 -115.27490 9994 ft 221 kts 121°
2026-04-25 02:27 36.14061 -115.25831 9989 ft 222 kts 121°
2026-04-25 02:27 36.13319 -115.24122 9991 ft 223 kts 121°
2026-04-25 02:28 36.12586 -115.22433 10006 ft 223 kts 121°
2026-04-25 02:28 36.11861 -115.20762 10006 ft 223 kts 121°
2026-04-25 02:28 36.11131 -115.19047 10005 ft 222 kts 121°
2026-04-25 02:28 36.10423 -115.17374 10008 ft 222 kts 121°
2026-04-25 02:29 36.09698 -115.15658 10004 ft 222 kts 121°
2026-04-25 02:29 36.08993 -115.13990 10003 ft 222 kts 121°
2026-04-25 02:29 36.08278 -115.12298 10006 ft 222 kts 121°
2026-04-25 02:29 36.07563 -115.10608 10001 ft 222 kts 121°
2026-04-25 02:30 36.06848 -115.08916 10005 ft 222 kts 121°
2026-04-25 02:30 36.06136 -115.07228 10004 ft 221 kts 121°
2026-04-25 02:30 36.05426 -115.05543 10003 ft 221 kts 121°
2026-04-25 02:30 36.04716 -115.03859 10002 ft 220 kts 121°
2026-04-25 02:31 36.03998 -115.02189 9991 ft 217 kts 128°
2026-04-25 02:31 36.02833 -115.01178 10029 ft 202 kts 172°
2026-04-25 02:31 36.01457 -115.00920 10029 ft 199 kts 178°
2026-04-25 02:31 36.00088 -115.00776 10030 ft 201 kts 180°
2026-04-25 02:32 35.98683 -115.00642 10020 ft 199 kts 179°
2026-04-25 02:32 35.97330 -115.00533 10021 ft 198 kts 180°
2026-04-25 02:32 35.95930 -115.00391 10024 ft 209 kts 181°
2026-04-25 02:32 35.94444 -115.00247 10032 ft 217 kts 183°
2026-04-25 02:33 35.92956 -115.00487 10033 ft 218 kts 196°
2026-04-25 02:33 35.91462 -115.00951 10032 ft 224 kts 198°
2026-04-25 02:33 35.89928 -115.01397 10040 ft 229 kts 196°
2026-04-25 02:33 35.88344 -115.01742 10037 ft 232 kts 193°
2026-04-25 02:34 35.86745 -115.02058 10035 ft 233 kts 194°
2026-04-25 02:34 35.85137 -115.02397 10021 ft 234 kts 194°
2026-04-25 02:34 35.83530 -115.02746 10025 ft 235 kts 194°
2026-04-25 02:34 35.81918 -115.03091 10024 ft 235 kts 194°
2026-04-25 02:35 35.80303 -115.03434 10025 ft 236 kts 194°
2026-04-25 02:35 35.78684 -115.03779 10026 ft 236 kts 194°
2026-04-25 02:35 35.77063 -115.04125 10025 ft 236 kts 194°
2026-04-25 02:35 35.75438 -115.04471 10024 ft 237 kts 194°
2026-04-25 02:36 35.73805 -115.04819 10028 ft 239 kts 194°
2026-04-25 02:36 35.72157 -115.05171 10026 ft 241 kts 194°
2026-04-25 02:36 35.70508 -115.05520 10028 ft 240 kts 194°
2026-04-25 02:36 35.68862 -115.05870 10026 ft 240 kts 194°
2026-04-25 02:37 35.67217 -115.06221 10022 ft 240 kts 194°
2026-04-25 02:37 35.65572 -115.06570 10020 ft 240 kts 194°
2026-04-25 02:37 35.63940 -115.06917 10019 ft 241 kts 194°
2026-04-25 02:37 35.62304 -115.07263 10165 ft 234 kts 194°
2026-04-25 02:38 35.60741 -115.07591 10514 ft 223 kts 194°
2026-04-25 02:38 35.59238 -115.07910 10863 ft 216 kts 195°
2026-04-25 02:38 35.57773 -115.08222 11219 ft 212 kts 195°
2026-04-25 02:38 35.56336 -115.08537 11577 ft 208 kts 195°
2026-04-25 02:39 35.54918 -115.08835 11945 ft 206 kts 194°
2026-04-25 02:39 35.53512 -115.09124 12315 ft 204 kts 195°
2026-04-25 02:39 35.52123 -115.09418 12691 ft 202 kts 195°
2026-04-25 02:39 35.50805 -115.09697 13057 ft 200 kts 195°
2026-04-25 02:40 35.49442 -115.09986 13444 ft 198 kts 195°
2026-04-25 02:40 35.48090 -115.10272 13804 ft 196 kts 196°
2026-04-25 02:40 35.46755 -115.10554 14154 ft 195 kts 196°
2026-04-25 02:40 35.45421 -115.10837 14491 ft 193 kts 197°
2026-04-25 02:41 35.44105 -115.11113 14848 ft 192 kts 197°
2026-04-25 02:41 35.42794 -115.11391 15202 ft 190 kts 197°
2026-04-25 02:41 35.41495 -115.11665 15563 ft 189 kts 198°
2026-04-25 02:41 35.40204 -115.11937 15888 ft 190 kts 198°
2026-04-25 02:42 35.38864 -115.12227 15994 ft 202 kts 198°
2026-04-25 02:42 35.37438 -115.12530 16024 ft 213 kts 197°
2026-04-25 02:42 35.35960 -115.12844 16017 ft 222 kts 197°
2026-04-25 02:42 35.34411 -115.13170 16024 ft 228 kts 197°
2026-04-25 02:43 35.32825 -115.13501 16023 ft 233 kts 197°
2026-04-25 02:43 35.31739 -115.13728 16015 ft 236 kts 197°
2026-04-25 02:43 35.29579 -115.14183 16019 ft 239 kts 197°
2026-04-25 02:43 35.27934 -115.14531 16029 ft 240 kts 197°
2026-04-25 02:44 35.26276 -115.14880 16021 ft 243 kts 197°
2026-04-25 02:44 35.24600 -115.15232 16021 ft 245 kts 197°
2026-04-25 02:44 35.22913 -115.15586 16006 ft 247 kts 196°
2026-04-25 02:44 35.21760 -115.15828 15909 ft 250 kts 197°
2026-04-25 02:45 35.20039 -115.16191 15801 ft 252 kts 197°
2026-04-25 02:45 35.18313 -115.16551 15798 ft 251 kts 197°
2026-04-25 02:45 35.16598 -115.16910 15787 ft 249 kts 197°
2026-04-25 02:45 35.14914 -115.17263 15786 ft 249 kts 197°
2026-04-25 02:46 35.13216 -115.17632 15782 ft 246 kts 200°
2026-04-25 02:46 35.11626 -115.18300 15783 ft 240 kts 207°
2026-04-25 02:46 35.10049 -115.19006 15784 ft 241 kts 206°
2026-04-25 02:46 35.08470 -115.19699 15784 ft 241 kts 206°
2026-04-25 02:47 35.06891 -115.20395 15777 ft 241 kts 207°
2026-04-25 02:47 35.05312 -115.21092 15775 ft 241 kts 206°
2026-04-25 02:47 35.03736 -115.21792 15775 ft 241 kts 206°
2026-04-25 02:47 35.02152 -115.22494 15774 ft 243 kts 206°
2026-04-25 02:48 35.00564 -115.23194 15774 ft 243 kts 206°
2026-04-25 02:48 34.98978 -115.23893 15775 ft 242 kts 206°
2026-04-25 02:48 34.97392 -115.24593 15775 ft 242 kts 206°
2026-04-25 02:48 34.95811 -115.25290 15749 ft 241 kts 207°
2026-04-25 02:49 34.94239 -115.25984 15747 ft 240 kts 207°
2026-04-25 02:49 34.92666 -115.26677 15747 ft 240 kts 207°
2026-04-25 02:49 34.91096 -115.27369 15755 ft 240 kts 207°
2026-04-25 02:49 34.89527 -115.28060 15755 ft 240 kts 207°
2026-04-25 02:50 34.87956 -115.28752 15759 ft 239 kts 207°
2026-04-25 02:50 34.86410 -115.29433 15742 ft 239 kts 207°
2026-04-25 02:50 34.84843 -115.30122 15742 ft 239 kts 207°
2026-04-25 02:50 34.83277 -115.30811 15741 ft 239 kts 207°
2026-04-25 02:51 34.81712 -115.31499 15741 ft 239 kts 207°
2026-04-25 02:51 34.80149 -115.32185 15741 ft 239 kts 207°
2026-04-25 02:51 34.78588 -115.32871 15741 ft 239 kts 207°
2026-04-25 02:51 34.77025 -115.33557 15741 ft 238 kts 207°
2026-04-25 02:52 34.75468 -115.34241 15730 ft 238 kts 207°
2026-04-25 02:52 34.73904 -115.34927 15730 ft 238 kts 206°
2026-04-25 02:52 34.72341 -115.35611 15732 ft 239 kts 206°
2026-04-25 02:52 34.70775 -115.36297 15724 ft 239 kts 207°
2026-04-25 02:53 34.69209 -115.36984 15725 ft 239 kts 207°
2026-04-25 02:53 34.67643 -115.37670 15726 ft 240 kts 206°
2026-04-25 02:53 34.66066 -115.38361 15709 ft 241 kts 206°
2026-04-25 02:53 34.64490 -115.39050 15709 ft 241 kts 206°
2026-04-25 02:54 34.62917 -115.39737 15715 ft 241 kts 206°
2026-04-25 02:54 34.61341 -115.40427 15714 ft 241 kts 206°
2026-04-25 02:54 34.59764 -115.41116 15721 ft 241 kts 206°
2026-04-25 02:54 34.58195 -115.41800 15772 ft 239 kts 207°
2026-04-25 02:55 34.56629 -115.42485 15790 ft 239 kts 207°
2026-04-25 02:55 34.55080 -115.43161 15786 ft 239 kts 207°
2026-04-25 02:55 34.53512 -115.43845 15803 ft 239 kts 207°
2026-04-25 02:55 34.51942 -115.44530 15804 ft 240 kts 207°
2026-04-25 02:56 34.50369 -115.45216 15808 ft 241 kts 207°
2026-04-25 02:56 34.48792 -115.45903 15808 ft 241 kts 207°
2026-04-25 02:56 34.47211 -115.46592 15808 ft 241 kts 206°
2026-04-25 02:56 34.45634 -115.47278 15809 ft 241 kts 207°
2026-04-25 02:57 34.44060 -115.47963 15806 ft 240 kts 207°
2026-04-25 02:57 34.42486 -115.48648 15806 ft 240 kts 207°
2026-04-25 02:57 34.40913 -115.49332 15806 ft 240 kts 207°
2026-04-25 02:57 34.39339 -115.50017 15805 ft 240 kts 207°
2026-04-25 02:58 34.37764 -115.50701 15806 ft 240 kts 207°
2026-04-25 02:58 34.36191 -115.51385 15805 ft 240 kts 207°
2026-04-25 02:58 34.34617 -115.52068 15817 ft 240 kts 207°
2026-04-25 02:58 34.33053 -115.52780 15813 ft 236 kts 213°
2026-04-25 02:59 34.31735 -115.53894 15817 ft 228 kts 228°
2026-04-25 02:59 34.30585 -115.55210 15821 ft 228 kts 228°
2026-04-25 02:59 34.29438 -115.56506 15823 ft 229 kts 228°
2026-04-25 02:59 34.28256 -115.57835 15823 ft 230 kts 228°
2026-04-25 03:00 34.27086 -115.59153 15827 ft 230 kts 228°
2026-04-25 03:00 34.25916 -115.60472 15829 ft 230 kts 228°
2026-04-25 03:00 34.24744 -115.61792 15828 ft 230 kts 228°
2026-04-25 03:00 34.23572 -115.63112 15829 ft 230 kts 227°
2026-04-25 03:01 34.22401 -115.64430 15844 ft 230 kts 227°
2026-04-25 03:01 34.21245 -115.65732 15841 ft 230 kts 228°
2026-04-25 03:01 34.20075 -115.67046 15844 ft 229 kts 228°
2026-04-25 03:01 34.18904 -115.68364 15842 ft 231 kts 228°
2026-04-25 03:02 34.17725 -115.69689 15846 ft 231 kts 228°
2026-04-25 03:02 34.16546 -115.71012 15829 ft 231 kts 228°
2026-04-25 03:02 34.15372 -115.72331 15840 ft 231 kts 228°
2026-04-25 03:02 34.14197 -115.73649 15842 ft 230 kts 228°
2026-04-25 03:03 34.13023 -115.74967 15834 ft 230 kts 228°
2026-04-25 03:03 34.11849 -115.76284 15842 ft 230 kts 228°
2026-04-25 03:03 34.10604 -115.77502 15861 ft 232 kts 219°
2026-04-25 03:03 34.09253 -115.78579 15869 ft 233 kts 220°
2026-04-25 03:04 34.07909 -115.79671 15866 ft 233 kts 220°
2026-04-25 03:04 34.06563 -115.80764 15872 ft 232 kts 219°
2026-04-25 03:04 34.05222 -115.81849 15868 ft 232 kts 220°
2026-04-25 03:05 34.02534 -115.84033 15869 ft 234 kts 220°
2026-04-25 03:05 34.01204 -115.85126 15854 ft 232 kts 220°
2026-04-25 03:05 33.99855 -115.86197 15856 ft 232 kts 220°
2026-04-25 03:05 33.98514 -115.87281 15865 ft 233 kts 220°
2026-04-25 03:06 33.97170 -115.88371 15856 ft 232 kts 220°
2026-04-25 03:06 33.95832 -115.89453 15877 ft 233 kts 220°
2026-04-25 03:06 33.94490 -115.90542 15872 ft 233 kts 220°
2026-04-25 03:06 33.93147 -115.91607 15872 ft 230 kts 220°
2026-04-25 03:07 33.91822 -115.92691 15868 ft 231 kts 220°
2026-04-25 03:07 33.90488 -115.93773 15866 ft 232 kts 220°
2026-04-25 03:07 33.89146 -115.94853 15869 ft 233 kts 220°
2026-04-25 03:07 33.87803 -115.95938 15861 ft 233 kts 220°
2026-04-25 03:08 33.86455 -115.97021 15871 ft 233 kts 220°
2026-04-25 03:08 33.85111 -115.98105 15871 ft 232 kts 220°
2026-04-25 03:08 33.83769 -115.99187 15867 ft 232 kts 220°
2026-04-25 03:08 33.82445 -116.00253 15872 ft 232 kts 220°
2026-04-25 03:09 33.81088 -116.01346 15885 ft 232 kts 220°
2026-04-25 03:09 33.79762 -116.02413 15884 ft 232 kts 220°
2026-04-25 03:09 33.78415 -116.03498 15887 ft 233 kts 220°
2026-04-25 03:09 33.77066 -116.04580 15889 ft 233 kts 220°
2026-04-25 03:10 33.75721 -116.05664 15872 ft 231 kts 220°
2026-04-25 03:10 33.74380 -116.06738 15879 ft 231 kts 220°
2026-04-25 03:10 33.73043 -116.07810 15882 ft 232 kts 220°
2026-04-25 03:10 33.71699 -116.08892 15883 ft 232 kts 220°
2026-04-25 03:11 33.70353 -116.09971 15883 ft 233 kts 220°
2026-04-25 03:11 33.69021 -116.11039 15887 ft 233 kts 220°
2026-04-25 03:11 33.67673 -116.12120 15888 ft 233 kts 220°
2026-04-25 03:11 33.66311 -116.13212 15888 ft 233 kts 220°
2026-04-25 03:12 33.64963 -116.14291 15870 ft 232 kts 220°
2026-04-25 03:12 33.63634 -116.15355 15864 ft 232 kts 220°
2026-04-25 03:12 33.62309 -116.16453 15873 ft 230 kts 223°
2026-04-25 03:12 33.61022 -116.17596 15872 ft 230 kts 222°
2026-04-25 03:13 33.59726 -116.18729 15872 ft 231 kts 222°
2026-04-25 03:13 33.58430 -116.19862 15869 ft 231 kts 222°
2026-04-25 03:13 33.57134 -116.21000 15869 ft 230 kts 222°
2026-04-25 03:13 33.55843 -116.22135 15851 ft 230 kts 222°
2026-04-25 03:14 33.54566 -116.23260 15883 ft 227 kts 222°
2026-04-25 03:14 33.53281 -116.24385 15875 ft 229 kts 222°
2026-04-25 03:14 33.51990 -116.25508 15886 ft 228 kts 221°
2026-04-25 03:14 33.50719 -116.26627 15895 ft 227 kts 223°
2026-04-25 03:15 33.49449 -116.27746 15905 ft 226 kts 222°
2026-04-25 03:15 33.48172 -116.28861 15893 ft 228 kts 222°
2026-04-25 03:15 33.46887 -116.29983 15889 ft 229 kts 222°
2026-04-25 03:15 33.45631 -116.31089 15915 ft 226 kts 222°
2026-04-25 03:16 33.44345 -116.32210 15898 ft 231 kts 223°
2026-04-25 03:16 33.43022 -116.33368 15892 ft 234 kts 222°
2026-04-25 03:16 33.41719 -116.34505 15893 ft 235 kts 222°
2026-04-25 03:16 33.40394 -116.35660 15906 ft 236 kts 222°
2026-04-25 03:17 33.39068 -116.36820 15905 ft 236 kts 222°
2026-04-25 03:17 33.37739 -116.37982 15910 ft 237 kts 222°
2026-04-25 03:17 33.36402 -116.39149 15943 ft 238 kts 222°
2026-04-25 03:17 33.35065 -116.40314 15940 ft 237 kts 223°
2026-04-25 03:18 33.33737 -116.41475 15938 ft 236 kts 222°
2026-04-25 03:18 33.32410 -116.42627 15941 ft 235 kts 221°
2026-04-25 03:18 33.31089 -116.43778 15942 ft 234 kts 222°
2026-04-25 03:18 33.29775 -116.44923 15942 ft 234 kts 222°
2026-04-25 03:19 33.28462 -116.46064 15948 ft 234 kts 222°
2026-04-25 03:19 33.27145 -116.47211 15956 ft 234 kts 223°
2026-04-25 03:19 33.25829 -116.48358 15958 ft 235 kts 222°
2026-04-25 03:19 33.24524 -116.49487 15962 ft 235 kts 222°
2026-04-25 03:20 33.23190 -116.50656 15990 ft 236 kts 222°
2026-04-25 03:20 33.21860 -116.51811 15991 ft 237 kts 222°
2026-04-25 03:20 33.20543 -116.52952 15987 ft 237 kts 222°
2026-04-25 03:20 33.19206 -116.54112 15988 ft 237 kts 222°
2026-04-25 03:21 33.17873 -116.55268 15995 ft 237 kts 222°
2026-04-25 03:21 33.16540 -116.56427 15992 ft 237 kts 222°
2026-04-25 03:21 33.15207 -116.57580 15995 ft 235 kts 221°
2026-04-25 03:21 33.13725 -116.58456 15999 ft 242 kts 206°
2026-04-25 03:22 33.12027 -116.58815 16004 ft 252 kts 193°
2026-04-25 03:22 33.10267 -116.58982 16000 ft 254 kts 194°
2026-04-25 03:22 33.08526 -116.59157 15995 ft 248 kts 194°
2026-04-25 03:22 33.06827 -116.59338 15987 ft 243 kts 194°
2026-04-25 03:23 33.05149 -116.59514 16005 ft 241 kts 194°
2026-04-25 03:23 33.03486 -116.59687 16022 ft 239 kts 194°
2026-04-25 03:23 33.01840 -116.59857 16025 ft 237 kts 194°
2026-04-25 03:23 33.00194 -116.60028 16025 ft 237 kts 194°
2026-04-25 03:24 32.98549 -116.60200 16019 ft 237 kts 194°
2026-04-25 03:24 32.96906 -116.60370 16023 ft 237 kts 194°
2026-04-25 03:24 32.95288 -116.60536 16034 ft 235 kts 194°
2026-04-25 03:24 32.93659 -116.60703 16036 ft 235 kts 194°
2026-04-25 03:25 32.92026 -116.60874 16034 ft 236 kts 194°
2026-04-25 03:25 32.90392 -116.61045 16034 ft 236 kts 194°
2026-04-25 03:25 32.88753 -116.61214 16032 ft 236 kts 194°
2026-04-25 03:25 32.87125 -116.61383 16030 ft 235 kts 194°
2026-04-25 03:26 32.85493 -116.61549 16041 ft 235 kts 194°
2026-04-25 03:26 32.83865 -116.61717 16043 ft 234 kts 194°
2026-04-25 03:26 32.82239 -116.61887 16045 ft 235 kts 194°
2026-04-25 03:26 32.80592 -116.62067 15796 ft 237 kts 198°
2026-04-25 03:27 32.79235 -116.62888 15400 ft 209 kts 234°
2026-04-25 03:27 32.78518 -116.64300 14964 ft 199 kts 248°
2026-04-25 03:27 32.77979 -116.65830 14495 ft 203 kts 250°
2026-04-25 03:27 32.77462 -116.67413 13997 ft 207 kts 251°
2026-04-25 03:28 32.76953 -116.69005 13406 ft 211 kts 251°
2026-04-25 03:28 32.76436 -116.70643 12718 ft 212 kts 251°
2026-04-25 03:28 32.75914 -116.72284 12061 ft 213 kts 251°
2026-04-25 03:28 32.75387 -116.73941 11400 ft 215 kts 251°
2026-04-25 03:29 32.74857 -116.75602 10759 ft 216 kts 251°
2026-04-25 03:29 32.74321 -116.77264 10130 ft 216 kts 251°
2026-04-25 03:29 32.73784 -116.78931 9463 ft 216 kts 251°
2026-04-25 03:29 32.73248 -116.80602 8780 ft 217 kts 251°
2026-04-25 03:30 32.72712 -116.82288 8100 ft 217 kts 251°
2026-04-25 03:30 32.72183 -116.83968 7450 ft 218 kts 251°
2026-04-25 03:30 32.71833 -116.85082 7020 ft 218 kts 251°
2026-04-25 03:30 32.71304 -116.86771 6383 ft 218 kts 251°
2026-04-25 03:31 32.70611 -116.89019 5544 ft 217 kts 251°
2026-04-25 03:31 32.70268 -116.90143 5220 ft 213 kts 251°
2026-04-25 03:31 32.69771 -116.91785 4720 ft 209 kts 251°
2026-04-25 03:31 32.69335 -116.93406 4216 ft 204 kts 255°
2026-04-25 03:32 32.68993 -116.95039 3837 ft 203 kts 257°
2026-04-25 03:32 32.68682 -116.96610 3795 ft 185 kts 256°
2026-04-25 03:32 32.68408 -116.98038 3780 ft 170 kts 260°
2026-04-25 03:32 32.68610 -116.99416 3783 ft 174 kts 286°
2026-04-25 03:33 32.68947 -117.00771 3780 ft 164 kts 283°
2026-04-25 03:33 32.69257 -117.02051 3731 ft 163 kts 284°
2026-04-25 03:33 32.69571 -117.03360 3478 ft 171 kts 284°
2026-04-25 03:33 32.69906 -117.04744 3141 ft 177 kts 285°
2026-04-25 03:34 32.70252 -117.06155 2785 ft 176 kts 284°
2026-04-25 03:34 32.70576 -117.07483 2433 ft 154 kts 283°
2026-04-25 03:34 32.70852 -117.08603 2093 ft 129 kts 284°
2026-04-25 03:34 32.71089 -117.09524 1835 ft 112 kts 284°
2026-04-25 03:35 32.71325 -117.10435 1644 ft 118 kts 282°
2026-04-25 03:35 32.71541 -117.11346 1462 ft 114 kts 282°
2026-04-25 03:35 32.71751 -117.12261 1329 ft 120 kts 283°
2026-04-25 03:35 32.71942 -117.13189 1271 ft 108 kts 280°
2026-04-25 03:36 32.72140 -117.14012 951 ft 103 kts 281°
2026-04-25 03:36 32.72363 -117.14879 754 ft 110 kts 282°
2026-04-25 03:36 32.72577 -117.15743 562 ft 106 kts 281°
2026-04-25 03:36 32.72763 -117.16532 400 ft 99 kts 281°
2026-04-25 03:37 32.72967 -117.17386 239 ft 111 kts 283°
2026-04-25 03:37 32.73172 -117.18250 60 ft 102 kts 283°
2026-04-25 03:37 32.73336 -117.18925 23 ft 61 kts 285°
2026-04-25 03:37 32.73435 -117.19073 19 ft 17 kts 16°
2026-04-25 03:38 32.73460 -117.19058 18 ft 0 kts 43°
2026-04-25 03:38 32.73461 -117.19057 18 ft 0 kts 43°
2026-04-25 03:39 32.73470 -117.19044 18 ft 8 kts 56°
2026-04-25 03:39 32.73469 -117.18957 17 ft 19 kts 103°